Wind_Speed
43 42 42 42 42 43 44 44 43 40 37 36 34 34 35 36 36 37 37 37 37 39 39 39 40 38 46 42 38 31 31 36 41 43 40 38 37 37 37 35 36 34 36
38 41 43 43 41 42 44 45 46 45 40 36 35 36 37 38 38 38 38 39 39 41 41 39 41 39 41 42 48 30 34 36 39 42 41 40 40 38 37 38 37 34 38
31 32 33 32 33 32 33 36 40 44 43 41 39 40 41 40 41 42 43 42 42 43 43 43 43 44 44 46 42 49 40 36 36 40 43 41 41 39 39 41 39 34 39
24 27 29 30 31 30 31 31 32 37 41 42 41 42 44 44 45 45 45 45 47 47 47 44 45 45 50 47 55 47 37 42 40 41 43 41 40 40 39 40 39 36 40
23 24 25 25 27 29 31 32 33 35 37 40 41 42 42 43 44 44 44 44 41 44 44 46 46 44 46 47 57 44 53 49 45 36 39 39 40 39 40 42 39 34 39
29 28 26 25 25 24 24 23 24 26 29 32 34 37 39 40 42 43 42 40 47 42 41 46 46 48 33 50 55 49 51 55 42 33 35 38 40 41 43 44 40 38 33
35 33 32 30 29 28 26 25 24 24 25 27 28 29 31 33 35 36 38 38 38 41 45 40 39 43 49 56 46 59 62 52 46 36 31 36 41 45 49 40 42 44 28
30 34 37 37 36 35 34 32 31 30 30 30 31 31 30 30 30 31 33 35 37 39 42 45 47 46 46 46 45 57 53 51 39 28 30 40 44 47 42 42 44 41 31
22 23 24 26 27 28 28 29 29 29 28 28 28 27 27 27 28 28 28 29 30 32 35 39 43 41 43 44 51 52 51 37 39 27 32 43 46 45 42 43 49 44 36
14 15 17 20 23 25 26 26 27 26 27 28 28 28 29 30 30 30 28 28 31 32 33 34 37 35 38 45 46 53 45 38 27 27 40 45 45 42 41 46 45 41 39
13 13 14 16 19 20 21 23 23 23 24 26 27 27 28 28 29 29 30 31 33 36 36 31 31 39 41 39 50 42 46 48 33 36 43 43 42 41 43 48 42 41 40
11 11 12 12 13 14 16 18 20 22 24 24 24 25 26 27 30 30 29 30 33 33 31 32 32 33 34 35 39 44 46 50 46 41 41 43 39 42 48 44 41 40 44
13 13 14 15 17 19 20 23 25 26 26 26 26 27 28 29 32 33 30 31 32 31 32 35 35 35 36 37 41 43 42 42 38 38 41 38 40 46 44 38 36 42 42
14 17 20 23 25 28 30 30 30 31 32 33 34 35 34 34 33 31 32 31 29 28 27 30 34 36 39 41 43 41 40 34 37 37 37 39 43 39 34 35 40 45 41
23 24 25 25 26 28 30 31 31 30 30 29 30 31 32 32 32 33 34 33 33 34 34 35 36 35 36 34 33 33 33 34 34 37 40 36 34 32 34 38 45 41 39
24 26 28 29 28 29 27 26 26 26 27 28 28 28 29 30 31 31 31 30 31 32 31 30 29 30 30 30 29 29 31 34 33 32 37 34 37 37 38 44 45 42 41
25 27 28 29 28 27 26 27 27 27 28 28 28 29 29 30 29 30 30 31 31 31 31 33 33 32 32 31 31 30 30 30 32 33 30 38 44 41 43 43 43 41 41
28 29 28 26 25 26 26 26 27 28 29 30 29 29 30 31 32 33 34 34 34 33 32 32 34 34 34 34 33 33 31 30 30 34 39 46 43 43 44 44 44 41 40
30 27 25 24 25 25 25 26 27 27 27 28 29 30 30 31 31 33 33 33 32 33 33 33 33 34 34 34 34 34 34 35 37 41 46 45 45 47 46 45 46 42 40
24 25 25 25 25 25 26 26 26 27 27 28 29 29 30 30 30 31 31 31 32 32 33 33 33 33 34 35 35 36 39 40 43 44 45 47 47 47 48 48 45 43 43
23 24 24 25 26 26 26 27 27 28 28 29 29 29 29 30 30 31 31 32 33 33 33 34 34 34 35 35 36 37 38 40 42 44 45 46 47 47 46 45 44 43 44
24 24 25 25 25 26 26 27 27 28 29 30 31 31 31 32 33 34 35 36 37 37 37 38 38 39 39 40 40 40 41 41 43 45 46 45 45 45 45 44 43 43 43
24 25 25 26 27 28 29 31 31 32 32 33 33 33 34 35 36 37 38 39 40 40 42 44 45 46 47 46 46 45 45 45 44 44 44 44 44 43 42 41 41 42 42
24 26 28 30 31 32 33 34 34 35 35 35 36 37 38 39 40 41 42 42 42 43 45 46 47 49 50 50 49 48 47 45 44 43 44 44 43 43 42 41 39 38 37
30 30 31 32 34 35 36 37 38 39 40 40 41 42 43 44 44 45 44 44 44 44 45 46 47 47 47 47 47 46 45 44 42 41 39 39 40 40 40 38 36 36 36
32 33 35 37 39 40 41 42 43 44 45 45 46 47 47 46 46 45 45 45 45 45 45 46 45 44 43 42 42 42 41 41 39 38 37 36 35 35 35 35 35 35 34
Wind_Direction
244 249 254 258 262 264 264 264 266 266 268 268 270 271 273 276 278 277 277 279 280 280 280 282 277 283 284 279 287 291 301 293 269 266 264 267 270 273 277 282 285 289 302
251 255 259 261 264 265 265 265 263 259 262 267 269 271 271 271 272 272 273 273 273 274 276 279 278 277 278 282 278 283 302 288 267 264 264 265 269 271 275 278 279 286 297
249 253 257 263 267 270 269 267 261 257 257 260 264 268 271 271 269 268 268 267 268 270 269 272 275 274 276 281 273 281 291 286 268 261 264 264 267 271 273 274 278 285 302
253 255 259 261 263 265 267 270 268 258 255 260 264 264 263 264 267 269 272 268 273 266 275 272 273 269 272 267 279 268 277 280 266 260 261 263 266 269 269 271 278 284 305
261 262 266 270 272 272 271 269 266 263 263 265 269 271 273 274 274 275 274 271 276 277 274 273 271 273 269 277 281 265 282 271 269 254 260 266 267 268 271 273 278 287 303
266 265 267 269 272 276 277 277 275 273 272 273 274 275 276 275 275 274 272 270 258 266 273 270 275 267 273 271 266 274 273 271 254 244 258 265 268 268 270 270 281 291 299
265 267 267 269 272 274 275 278 283 286 287 288 288 287 288 287 285 282 280 277 273 266 268 268 272 269 275 270 265 268 276 277 268 245 251 262 261 262 266 280 278 297 288
266 265 265 267 271 277 277 279 285 288 286 284 285 284 285 286 285 283 282 282 282 280 277 278 265 270 270 261 267 279 276 277 255 257 255 257 258 261 275 280 285 296 282
274 272 268 266 267 267 269 272 272 273 277 280 282 284 285 286 285 284 283 282 281 280 279 279 273 267 262 270 271 271 280 257 256 247 254 258 258 268 281 274 292 299 288
274 269 262 259 261 265 269 272 274 276 277 278 277 277 278 281 282 282 280 281 281 284 284 282 277 274 270 267 275 275 259 263 256 254 253 255 260 271 275 285 289 294 296
278 273 271 268 264 263 266 269 271 273 275 277 279 281 283 283 283 283 286 289 291 289 287 285 286 280 290 273 271 269 269 274 251 246 252 261 265 272 281 281 293 295 300
285 283 279 276 273 274 277 280 284 285 285 285 287 288 286 281 283 286 287 290 286 284 279 274 279 285 293 293 290 292 281 289 274 257 259 260 268 272 274 291 295 293 298
267 271 274 277 280 282 284 285 285 284 283 283 283 285 287 289 293 295 296 296 295 296 294 288 287 291 291 289 290 288 282 275 261 259 261 269 271 272 286 292 293 297 296
272 278 283 285 284 285 287 287 286 285 283 280 281 282 283 285 286 285 287 288 291 292 295 296 293 294 294 298 298 288 280 266 260 264 268 269 279 288 288 290 287 292 292
279 282 284 286 288 289 289 291 291 290 289 289 290 289 288 287 288 289 289 288 287 289 293 295 294 292 292 293 293 289 280 276 272 266 271 281 287 280 282 285 293 291 290
283 286 289 293 292 291 290 289 289 290 291 291 291 293 295 297 298 297 295 293 294 295 297 295 293 292 292 290 286 280 274 269 267 273 273 280 284 281 284 288 289 290 287
287 292 295 292 289 288 288 288 289 290 290 291 293 293 292 291 292 293 295 296 296 294 291 289 290 289 286 283 279 276 273 270 268 268 269 273 274 277 285 288 291 288 286
287 289 288 288 287 285 284 285 287 287 289 290 291 291 291 292 293 293 293 293 292 292 292 291 290 289 289 288 284 280 274 271 266 271 270 272 273 275 284 289 291 285 283
285 285 285 284 282 281 281 282 283 284 285 286 287 288 290 290 290 290 291 291 291 290 290 290 289 290 289 287 284 279 272 268 262 261 265 270 273 278 283 287 289 285 281
277 278 279 281 282 283 284 285 287 289 290 290 291 291 292 292 292 293 293 293 294 294 294 294 294 292 290 288 286 282 279 276 271 270 273 276 278 283 286 286 283 281 280
274 275 276 277 279 283 285 287 288 289 290 291 292 293 293 295 296 297 298 298 298 298 297 296 296 295 293 291 287 284 282 281 280 279 280 282 284 287 287 285 283 281 280
273 276 278 281 283 285 288 290 291 292 293 294 296 296 297 299 300 302 302 301 299 299 298 296 295 294 292 290 288 286 284 282 281 282 284 286 286 286 285 284 283 282 281
277 281 285 287 289 291 291 292 291 291 291 292 293 295 297 299 300 301 301 298 297 297 297 295 293 293 291 288 285 283 282 282 282 283 284 285 285 285 285 284 282 282 282
283 287 289 290 290 290 289 289 288 288 289 289 290 292 293 295 296 297 296 294 294 295 294 292 292 292 290 285 282 282 282 283 284 283 283 283 285 286 285 286 287 286 285
282 284 286 287 287 287 287 287 287 287 287 288 289 291 293 294 294 294 293 293 293 294 293 291 293 295 294 288 283 282 282 283 283 283 283 284 285 285 284 283 282 283 285
286 286 287 287 286 287 287 287 287 287 288 288 290 291 292 291 291 290 291 292 293 293 294 294 294 296 296 292 285 282 280 281 281 281 281 282 282 282 283 281 280 283 284
Height
3112 3116 3117 3119 3121 3122 3122 3123 3124 3125 3126 3126 3127 3127 3127 3126 3125 3123 3121 3121 3119 3117 3116 3115 3116 3115 3113 3110 3107 3104 3102 3099 3096 3096 3096 3096 3094 3092 3089 3088 3085 3083 3081
3105 3107 3108 3109 3110 3110 3110 3111 3112 3113 3115 3116 3116 3116 3116 3115 3114 3114 3112 3110 3110 3108 3107 3105 3104 3104 3103 3102 3099 3093 3092 3090 3087 3087 3088 3086 3086 3085 3083 3078 3075 3075 3072
3097 3098 3100 3100 3100 3100 3099 3099 3099 3100 3102 3103 3103 3104 3104 3104 3103 3102 3100 3098 3099 3097 3097 3096 3094 3093 3090 3089 3086 3083 3081 3079 3076 3078 3078 3078 3076 3075 3074 3070 3067 3065 3063
3089 3090 3091 3091 3091 3090 3090 3090 3090 3090 3090 3091 3092 3091 3090 3090 3089 3089 3089 3088 3087 3086 3084 3085 3084 3084 3084 3080 3076 3070 3069 3070 3069 3067 3070 3070 3069 3067 3064 3062 3060 3058 3055
3084 3084 3084 3083 3083 3083 3083 3083 3083 3083 3083 3082 3082 3081 3080 3079 3078 3078 3077 3077 3077 3077 3074 3074 3072 3070 3069 3072 3066 3062 3061 3058 3057 3056 3061 3062 3061 3058 3056 3054 3052 3050 3049
3077 3076 3076 3076 3076 3076 3075 3074 3074 3073 3073 3072 3071 3070 3068 3067 3066 3065 3064 3063 3065 3064 3063 3061 3062 3062 3055 3059 3057 3055 3049 3048 3044 3044 3051 3054 3054 3050 3046 3043 3045 3043 3040
3068 3069 3069 3069 3069 3069 3069 3069 3068 3068 3067 3065 3063 3061 3060 3058 3057 3056 3055 3054 3053 3052 3050 3049 3049 3048 3049 3045 3048 3043 3040 3039 3034 3034 3040 3043 3042 3039 3034 3039 3034 3036 3030
3058 3059 3060 3061 3061 3061 3061 3061 3060 3060 3059 3057 3056 3054 3053 3050 3048 3046 3045 3044 3043 3042 3040 3038 3038 3038 3037 3035 3032 3033 3030 3026 3025 3026 3031 3033 3032 3029 3032 3032 3028 3025 3022
3049 3049 3050 3050 3051 3052 3052 3052 3051 3050 3049 3048 3047 3045 3044 3043 3040 3038 3037 3035 3033 3031 3029 3026 3025 3024 3023 3022 3023 3020 3019 3017 3017 3018 3022 3023 3021 3022 3025 3021 3020 3016 3012
3041 3042 3042 3043 3043 3044 3044 3044 3044 3043 3042 3041 3039 3037 3035 3034 3033 3031 3029 3027 3025 3022 3020 3017 3016 3017 3015 3014 3012 3011 3008 3008 3006 3012 3013 3010 3011 3014 3015 3012 3010 3006 3002
3037 3037 3037 3037 3037 3038 3037 3037 3037 3036 3035 3033 3031 3030 3028 3026 3025 3023 3022 3020 3018 3016 3013 3010 3009 3010 3006 2998 3002 3000 3002 2999 2999 3002 3000 3002 3003 3006 3005 3000 2999 2996 2993
3032 3032 3032 3032 3032 3032 3032 3030 3030 3029 3027 3026 3024 3023 3021 3019 3017 3015 3014 3010 3007 3005 3003 3001 3001 2998 2998 2995 2994 2994 2994 2992 2989 2989 2992 2992 2993 2995 2992 2990 2987 2985 2982
3028 3027 3027 3027 3027 3027 3026 3024 3022 3021 3019 3018 3016 3014 3013 3012 3009 3008 3007 3004 3001 2999 2997 2994 2993 2991 2989 2989 2987 2985 2982 2981 2980 2982 2984 2983 2984 2983 2981 2980 2977 2975 2971
3023 3023 3022 3022 3021 3020 3018 3016 3015 3014 3012 3010 3007 3005 3003 3003 3000 2998 2996 2994 2991 2989 2987 2986 2986 2983 2981 2979 2976 2974 2973 2973 2972 2974 2976 2977 2975 2974 2971 2970 2967 2964 2959
3016 3016 3015 3015 3013 3012 3011 3009 3008 3007 3005 3002 3001 2998 2997 2994 2991 2989 2987 2986 2984 2982 2980 2977 2975 2972 2970 2969 2967 2965 2965 2964 2963 2965 2965 2965 2964 2963 2961 2959 2956 2952 2948
3011 3010 3010 3008 3006 3005 3003 3002 3000 2998 2997 2995 2994 2991 2989 2988 2985 2983 2981 2979 2975 2973 2971 2969 2967 2964 2961 2959 2958 2956 2955 2956 2957 2956 2957 2956 2956 2953 2951 2948 2945 2941 2938
3005 3005 3004 3003 3001 2999 2998 2997 2995 2992 2990 2988 2986 2983 2981 2979 2976 2973 2972 2970 2967 2966 2963 2961 2959 2956 2953 2951 2949 2948 2948 2945 2944 2944 2944 2945 2945 2942 2939 2935 2933 2929 2927
2998 2997 2996 2995 2993 2993 2992 2990 2988 2987 2986 2984 2982 2980 2977 2974 2972 2969 2966 2963 2960 2958 2955 2953 2949 2947 2944 2942 2940 2938 2937 2937 2935 2934 2933 2932 2930 2928 2926 2923 2921 2917 2915
2991 2990 2989 2988 2987 2986 2984 2982 2982 2980 2978 2976 2974 2971 2968 2965 2962 2959 2957 2955 2952 2950 2947 2945 2941 2938 2935 2931 2930 2928 2927 2925 2923 2922 2920 2919 2916 2914 2913 2910 2909 2906 2903
2982 2981 2980 2980 2979 2977 2976 2974 2973 2971 2969 2967 2964 2962 2959 2958 2955 2952 2948 2946 2944 2941 2937 2935 2932 2929 2927 2923 2921 2918 2916 2914 2913 2910 2908 2906 2904 2901 2899 2897 2894 2891 2891
2975 2974 2972 2970 2969 2968 2968 2965 2964 2962 2959 2957 2955 2953 2950 2947 2945 2943 2940 2938 2935 2932 2929 2926 2923 2919 2916 2914 2911 2908 2906 2903 2901 2899 2896 2893 2890 2888 2885 2882 2880 2879 2877
2967 2966 2964 2963 2960 2958 2958 2957 2954 2952 2949 2947 2945 2942 2941 2938 2936 2933 2931 2928 2925 2922 2919 2916 2913 2911 2905 2903 2899 2896 2894 2891 2888 2886 2884 2880 2877 2874 2872 2869 2868 2866 2864
2959 2957 2956 2954 2952 2950 2948 2946 2945 2942 2940 2938 2935 2933 2930 2928 2927 2923 2920 2918 2914 2910 2906 2904 2901 2897 2894 2891 2887 2883 2880 2878 2875 2873 2870 2867 2864 2861 2859 2856 2854 2853 2851
2949 2948 2947 2944 2942 2939 2937 2935 2933 2931 2929 2926 2923 2921 2918 2916 2914 2911 2909 2906 2903 2899 2894 2890 2887 2882 2878 2875 2872 2869 2866 2864 2862 2858 2857 2853 2851 2849 2847 2844 2843 2841 2838
2939 2937 2935 2934 2931 2929 2926 2923 2922 2919 2917 2914 2912 2909 2906 2903 2900 2897 2894 2891 2888 2884 2880 2876 2873 2868 2864 2860 2857 2854 2853 2850 2847 2844 2842 2841 2839 2837 2835 2833 2830 2829 2827
2928 2926 2924 2922 2919 2916 2914 2912 2909 2907 2904 2900 2897 2894 2891 2888 2885 2882 2879 2876 2873 2870 2866 2863 2858 2855 2850 2847 2843 2840 2838 2835 2834 2831 2829 2828 2826 2825 2824 2822 2819 2817 2815